Torna al catalogo

STARLINK-34694

AttivoComunicazioniVLEO
NORAD 66189·PAYLOAD·🇺🇸 United States

Lanciato Oct 26, 2025 da Cape Canaveral Space Force Station

Loading…

Prossimi Passaggi (prossime 24 ore)

TLE

AggiornatoSource: CelesTrak SupGP

Epoca: Sep 14, 2026, 22:57 UTC

1 66189C 25243N   26257.95673611  .00041325  00000+0  12220-2 0  2576
2 66189  53.1589  85.2829 0001146  86.3660 264.4118 15.34342429    12

Traccia STARLINK-34694 in tempo reale con AllMySat

Download on the App Store